Location: Aragoneses
(41.0275°N, 4.3847°W)
Time: 03:20:33
(UTC+00:00)

Tiangong - Visible Passes

Search period start: 18 February 2026 00:00
Search period end: 28 February 2026 00:00
Orbit: 385 x 391 km, 41.5° (Epoch: 17 February)

Date Brightness Start Highest point End Pass type
(mag) Time Alt. Az. Time Alt. Az. Time Alt. Az.
18 Feb -2.2 18:49:34 10° W 18:52:45 85° S 18:54:51 19° ESE visible
18 Feb 1.2 20:26:41 10° W 20:27:08 13° W 20:27:08 13° W visible
19 Feb -1.3 19:27:57 10° W 19:30:59 42° SSW 19:31:34 37° S visible
20 Feb -1.7 18:29:17 10° W 18:32:25 62° SSW 18:35:34 10° ESE visible
20 Feb 0.6 20:06:53 10° WSW 20:08:19 15° SW 20:08:19 15° SW visible
21 Feb -0.2 19:07:46 10° W 19:10:28 26° SSW 19:12:51 12° SSE visible
23 Feb 0.7 18:47:44 10° WSW 18:49:41 15° SSW 18:51:38 10° S visible
